Valley City, ND

2:14 PM CST on December 05, 2019 (GMT -0600)
Valley City

Weather History for KBAC - October, 2019

Change the Weather History Date:

Sunday, October 6, 2019

  Actual Average (KJMS) Record (KJMS)
Temperature  
Mean Temperature 51 °F -  
Max Temperature 60 °F 59 °F 93 °F (1905)
Min Temperature 42 °F 35 °F 17 °F (1954)
Degree Days  
Heating Degree Days 14    
Growing Degree Days 1 (Base 50)    
Moisture  
Dew Point 40 °F    
Average Humidity 69    
Maximum Humidity 87    
Minimum Humidity 42    
Precipitation  
Precipitation 0.00 in - - ()
Sea Level Pressure  
Sea Level Pressure 29.90 in    
Wind  
Wind Speed 17 mph (West)    
Max Wind Speed 33 mph    
Max Gust Speed 46 mph    
Visibility 10 miles    
Events      
Averages and records for this station are not official NWS values.
T = Trace of Precipitation, MM = Missing Value Source: NWS Daily Summary

Daily Weather History Graph

Daily Weather History Graph

Search for Another Location

Airport or City:

Astronomy

Oct. 06, 2019 Rise Set
Actual Time 7:37 AM CDT 7:02 PM CDT
Civil Twilight 7:06 AM CDT 7:32 PM CDT
Nautical Twilight 6:31 AM CDT 8:07 PM CDT
Astronomical Twilight 5:56 AM CDT 8:43 PM CDT
Moon 4:10 PM CDT (10/6) 12:07 AM CDT (10/6)
Length of Visible Light 12h 25m
Length of Day
11h 24m
First Quarter, 60% of the Moon is Illuminated
Oct 6
First Quarter
Oct 13
Full
Oct 21
Last Quarter
Oct 27
New
Nov 4
First Quarter

Hourly Weather History & Observations

Time (CDT) Temp. Windchill Dew Point Humidity Pressure Visibility Wind Dir Wind Speed Gust Speed Precip Events Conditions
12:15 AM 46.4 °F 39.8 °F 41.0 °F 81% 29.76 in 10.0 mi WSW 16.1 mph - N/A   Clear
12:35 AM 46.4 °F 40.1 °F 41.0 °F 81% 29.77 in 10.0 mi WSW 15.0 mph - N/A   Clear
12:55 AM 46.4 °F 40.4 °F 41.0 °F 81% 29.77 in 10.0 mi WSW 13.8 mph - N/A   Clear
1:15 AM 44.6 °F 37.8 °F 39.2 °F 81% 29.78 in 10.0 mi West 15.0 mph - N/A   Clear
1:35 AM 44.6 °F 37.4 °F 39.2 °F 81% 29.78 in 10.0 mi West 16.1 mph - N/A   Clear
1:55 AM 44.6 °F 37.8 °F 39.2 °F 81% 29.78 in 10.0 mi West 15.0 mph - N/A   Clear
2:15 AM 44.6 °F 37.4 °F 39.2 °F 81% 29.79 in 10.0 mi West 16.1 mph - N/A   Clear
2:35 AM 44.6 °F 38.1 °F 39.2 °F 81% 29.80 in 10.0 mi West 13.8 mph - N/A   Clear
2:55 AM 44.6 °F 37.8 °F 39.2 °F 81% 29.80 in 10.0 mi West 15.0 mph - N/A   Clear
3:15 AM 44.6 °F 38.1 °F 39.2 °F 81% 29.80 in 10.0 mi WSW 13.8 mph - N/A   Clear
3:35 AM 44.6 °F 37.8 °F 39.2 °F 81% 29.80 in 10.0 mi WSW 15.0 mph - N/A   Clear
3:55 AM 44.6 °F 37.4 °F 39.2 °F 81% 29.81 in 10.0 mi WSW 16.1 mph - N/A   Clear
4:15 AM 42.8 °F 35.4 °F 39.2 °F 87% 29.81 in 10.0 mi WSW 15.0 mph - N/A   Clear
4:35 AM 44.6 °F 37.4 °F 41.0 °F 87% 29.81 in 10.0 mi WSW 16.1 mph - N/A   Mostly Cloudy
4:55 AM 44.6 °F 37.4 °F 41.0 °F 87% 29.82 in 10.0 mi WSW 16.1 mph 24.2 mph N/A   Overcast
5:15 AM 46.4 °F 39.5 °F 41.0 °F 81% 29.82 in 10.0 mi WSW 17.3 mph 23.0 mph N/A   Overcast
5:35 AM 46.4 °F 39.8 °F 41.0 °F 81% 29.82 in 10.0 mi WSW 16.1 mph - N/A   Overcast
5:55 AM 46.4 °F 39.8 °F 41.0 °F 81% 29.83 in 10.0 mi West 16.1 mph - N/A   Overcast
6:15 AM 46.4 °F 39.8 °F 41.0 °F 81% 29.83 in 10.0 mi WSW 16.1 mph 21.9 mph N/A   Mostly Cloudy
6:35 AM 46.4 °F 40.1 °F 41.0 °F 81% 29.84 in 10.0 mi West 15.0 mph 20.7 mph N/A   Scattered Clouds
6:55 AM 46.4 °F 40.1 °F 41.0 °F 81% 29.84 in 10.0 mi WSW 15.0 mph - N/A   Mostly Cloudy
7:15 AM 46.4 °F 40.1 °F 41.0 °F 81% 29.84 in 10.0 mi West 15.0 mph 21.9 mph N/A   Overcast
7:35 AM 46.4 °F 39.2 °F 41.0 °F 81% 29.85 in 10.0 mi West 18.4 mph 24.2 mph N/A   Overcast
7:55 AM 46.4 °F 39.5 °F 41.0 °F 81% 29.86 in 10.0 mi West 17.3 mph - N/A   Scattered Clouds
8:15 AM 46.4 °F 39.2 °F 41.0 °F 81% 29.86 in 10.0 mi West 18.4 mph 24.2 mph N/A   Partly Cloudy
8:35 AM 46.4 °F 39.0 °F 41.0 °F 81% 29.87 in 10.0 mi West 19.6 mph 26.5 mph N/A   Mostly Cloudy
8:55 AM 48.2 °F - 42.8 °F 82% 29.87 in 10.0 mi West 16.1 mph - N/A   Scattered Clouds
9:15 AM 48.2 °F - 42.8 °F 82% 29.88 in 10.0 mi West 17.3 mph 25.3 mph N/A   Partly Cloudy
9:35 AM 50.0 °F - 42.8 °F 76% 29.89 in 10.0 mi West 20.7 mph 27.6 mph N/A   Partly Cloudy
9:55 AM 50.0 °F - 42.8 °F 76% 29.89 in 10.0 mi West 20.7 mph 26.5 mph N/A   Partly Cloudy
10:15 AM 51.8 °F - 42.8 °F 71% 29.90 in 10.0 mi West 23.0 mph 33.4 mph N/A   Mostly Cloudy
10:35 AM 51.8 °F - 42.8 °F 71% 29.91 in 10.0 mi West 21.9 mph - N/A   Overcast
10:55 AM 51.8 °F - 42.8 °F 71% 29.91 in 10.0 mi West 21.9 mph 29.9 mph N/A   Mostly Cloudy
11:15 AM 53.6 °F - 42.8 °F 67% 29.92 in 10.0 mi WNW 23.0 mph 34.5 mph N/A   Clear
11:35 AM 55.4 °F - 42.8 °F 63% 29.92 in 10.0 mi WNW 25.3 mph 34.5 mph N/A   Clear
11:55 AM 55.4 °F - 42.8 °F 63% 29.92 in 10.0 mi WNW 25.3 mph 32.2 mph N/A   Clear
12:15 PM 57.2 °F - 41.0 °F 55% 29.92 in 10.0 mi West 25.3 mph 33.4 mph N/A   Clear
12:35 PM 57.2 °F - 41.0 °F 55% 29.92 in 10.0 mi WNW 26.5 mph 35.7 mph N/A   Partly Cloudy
12:55 PM 59.0 °F - 39.2 °F 48% 29.93 in 10.0 mi WNW 27.6 mph 35.7 mph N/A   Scattered Clouds
1:15 PM 59.0 °F - 39.2 °F 48% 29.93 in 10.0 mi WNW 23.0 mph 36.8 mph N/A   Partly Cloudy
1:35 PM 59.0 °F - 39.2 °F 48% 29.93 in 10.0 mi WNW 27.6 mph - N/A   Partly Cloudy
2:15 PM 57.2 °F - 39.2 °F 51% 29.93 in 10.0 mi West 20.7 mph 32.2 mph N/A   Overcast
2:35 PM 59.0 °F - 39.2 °F 48% 29.93 in 10.0 mi West 24.2 mph 38.0 mph N/A   Mostly Cloudy
2:55 PM 59.0 °F - 39.2 °F 48% 29.93 in 10.0 mi West 21.9 mph 32.2 mph N/A   Mostly Cloudy
3:15 PM 60.8 °F - 39.2 °F 45% 29.93 in 10.0 mi West 25.3 mph 33.4 mph N/A   Overcast
3:35 PM 60.8 °F - 37.4 °F 42% 29.93 in 10.0 mi WNW 29.9 mph 39.1 mph N/A   Overcast
3:55 PM 60.8 °F - 37.4 °F 42% 29.93 in 10.0 mi WNW 33.4 mph 46.0 mph N/A   Mostly Cloudy
4:15 PM 59.0 °F - 37.4 °F 45% 29.94 in 10.0 mi WNW 21.9 mph 35.7 mph N/A   Scattered Clouds
4:35 PM 59.0 °F - 37.4 °F 45% 29.95 in 10.0 mi WNW 25.3 mph 34.5 mph N/A   Scattered Clouds
4:55 PM 57.2 °F - 37.4 °F 48% 29.95 in 10.0 mi WNW 19.6 mph 33.4 mph N/A   Scattered Clouds
5:15 PM 57.2 °F - 39.2 °F 51% 29.95 in 10.0 mi WNW 19.6 mph 26.5 mph N/A   Overcast
5:35 PM 57.2 °F - 37.4 °F 48% 29.95 in 10.0 mi West 19.6 mph - N/A   Mostly Cloudy
5:55 PM 55.4 °F - 37.4 °F 51% 29.96 in 10.0 mi West 17.3 mph - N/A   Scattered Clouds
6:15 PM 55.4 °F - 39.2 °F 54% 29.96 in 10.0 mi West 15.0 mph - N/A   Mostly Cloudy
6:35 PM 55.4 °F - 39.2 °F 54% 29.97 in 10.0 mi West 11.5 mph - N/A   Overcast
6:55 PM 53.6 °F - 39.2 °F 58% 29.97 in 10.0 mi West 12.7 mph - N/A   Mostly Cloudy
7:15 PM 53.6 °F - 39.2 °F 58% 29.98 in 10.0 mi West 10.4 mph - N/A   Overcast
7:35 PM 53.6 °F - 39.2 °F 58% 29.98 in 10.0 mi West 8.1 mph - N/A   Overcast
7:55 PM 51.8 °F - 39.2 °F 62% 29.99 in 10.0 mi West 10.4 mph - N/A   Overcast
8:15 PM 51.8 °F - 39.2 °F 62% 29.99 in 10.0 mi West 10.4 mph - N/A   Scattered Clouds
8:35 PM 48.2 °F - 41.0 °F 76% 30.00 in 10.0 mi West 9.2 mph - N/A   Clear
8:55 PM 48.2 °F - 41.0 °F 76% 30.01 in 10.0 mi West 11.5 mph - N/A   Clear
9:15 PM 48.2 °F - 41.0 °F 76% 30.01 in 10.0 mi West 12.7 mph - N/A   Clear
9:35 PM 48.2 °F - 39.2 °F 71% 30.02 in 10.0 mi West 13.8 mph - N/A   Clear
9:55 PM 48.2 °F - 39.2 °F 71% 30.02 in 10.0 mi West 12.7 mph - N/A   Clear
10:15 PM 46.4 °F 40.7 °F 39.2 °F 76% 30.03 in 10.0 mi West 12.7 mph - N/A   Clear
10:35 PM 46.4 °F 40.7 °F 39.2 °F 76% 30.03 in 10.0 mi West 12.7 mph - N/A   Clear
10:55 PM 46.4 °F 40.4 °F 39.2 °F 76% 30.04 in 10.0 mi WSW 13.8 mph - N/A   Clear
11:15 PM 46.4 °F 40.7 °F 41.0 °F 81% 30.04 in 10.0 mi WSW 12.7 mph - N/A   Clear
11:35 PM 46.4 °F 40.4 °F 41.0 °F 81% 30.05 in 10.0 mi WSW 13.8 mph - N/A   Clear
11:55 PM 44.6 °F 37.8 °F 41.0 °F 87% 30.05 in 10.0 mi WSW 15.0 mph - N/A   Clear